Location: Unspecified
(0.0000°N, 0.0000°E)
Time: 22:53:18
(UTC+00:00)

ISS - Pass Details

Date: 10 April 2026
Orbit: 416 x 425 km, 51.6° (Epoch: 18 April)

Event Time Altitude Azimuth Distance (km) Brightness Sun altitude
Exits shadow 04:42:33 18° 178° (S) 1,110 -1.7 -19.5°
Maximum altitude 04:44:27 31° 126° (SE) 760 -2.0 -19.0°
Drops below altitude 10° 04:47:27 10° 61° (ENE) 1,488 0.1 -18.3°
Sets 04:49:41 0° 51° (NE) 2,350 1.1 -17.8°
